Regional Weather Roundup
Issued by NWS

Home | Current Version | Previous Version | Graphics & Text | Print | Product List | Glossary On
Versions: 1 2 3 4 5 6 7 8 9 10 11 12 13 14 15 16 17 18 19 20 21 22 23 24 25 26 27
000
ASUS45 KTFX 201010
RWRMT
MONTANA REGIONAL WEATHER ROUNDUP
NATIONAL WEATHER SERVICE GREAT FALLS MT
400 AM MDT WED SEP 20 2017

NOTE: "FAIR" INDICATES FEW OR NO CLOUDS BELOW 12000 FEET WITH NO
SIGNIFICANT WEATHER AND/OR OBSTRUCTIONS TO VISIBILITY.

MTZ001>007-043-201100-
WEST OF THE DIVIDE

CITY           SKY/WX    TMP DP  RH WIND       PRES   REMARKS
KALISPELL      LGT RAIN  41  40  96 S5        29.65F
MISSOULA       CLOUDY    37  37 100 NW3       29.72F
BUTTE          MOCLDY    38  28  67 NE6       29.74F
MULLAN PASS    MIX PCPN  31  29  92 VRB7G20   29.65S VSB 1/4 WCI  24
ANACONDA         N/A     37  28  70 S16G23    29.72F WCI  28
DEER LODGE       N/A     39  28  65 SE12      29.72F WCI  32
EUREKA           N/A     45  36  70 CALM      29.60F
HAMILTON         N/A     43  34  70 SE12      29.72S
LIBBY            N/A     41  37  87 E8        29.63F
$$

MTZ008-052>055-201100-
SOUTHWEST MONTANA

CITY           SKY/WX    TMP DP  RH WIND       PRES   REMARKS
BOZEMAN        PTCLDY    37  34  89 CALM      29.76R
DILLON         MOCLDY    38  27  64 S8        29.77F
W YELLOWSTONE  CLOUDY    32  30  93 SW7       29.86R WCI  26
ENNIS          MOCLDY    39  27  60 S12G18    29.82F WCI  32
$$

MTZ009-010-012-014-046-048-049-054-201100-
EAST SLOPES AND CENTRAL MONTANA

CITY           SKY/WX    TMP DP  RH WIND       PRES   REMARKS
CUT BANK       MOCLDY    41  31  67 SW14      29.53F
GREAT FALLS    CLOUDY    44  27  51 SW18G29   29.61F
MALMSTROM AFB  CLOUDY    42  29  58 S13       29.62R
HELENA         CLEAR     42  29  59 VRB7      29.67F
BOWMANS CRNR     N/A     40  27  61 S20       29.59R
CHOTEAU          N/A     43  27  52 VRB3G12   29.58F
FAIRFIELD      MOCLDY    39  29  66 S10       29.58S
POWER            N/A     41  29  61 SW14      29.58S
RAYNESFORD       N/A     45  25  45 CALM      29.64R
ULM              N/A     44  28  51 SW16G31   29.62F
$$

MTZ011-013-016-021-045-047-050-051-201100-
NORTH CENTRAL MONTANA

CITY           SKY/WX    TMP DP  RH WIND       PRES   REMARKS
HAVRE          CLEAR     41  33  73 SW13      29.55F
LEWISTOWN      CLOUDY    42  27  55 SW16      29.63F
N BAR RANCH      N/A     37  23  56 NW5       29.64F
CHINOOK          N/A     45  34  65 W5        29.55S
DENTON           N/A     40  28  64 S8        29.58S
GEYSER           N/A     45  25  46 W39G47    29.55F
GRASS RANGE      N/A     45  26  46 SW24G31   29.56F
JUDITH GAP       N/A     37  29  73 S20       29.65F WCI  26
WINIFRED       MOCLDY    42  30  64 W15       29.59S
$$

MTZ017>020-022>027-061-062-201100-
NORTHEAST MONTANA

CITY           SKY/WX    TMP DP  RH WIND       PRES   REMARKS
GLASGOW        CLOUDY    45  35  68 W6        29.57S
JORDAN           N/A     39  35  86 W7        29.61S
SIDNEY         PTCLDY    41  39  93 S10       29.59F
WOLF POINT     CLOUDY    37  34  89 CALM      29.57S
MALTA          CLEAR     39  34  81 CALM      29.57S
PLENTYWOOD       N/A     43  36  75 CALM      29.55S
POPLAR           N/A     43  36  75 SE3       29.57F
$$

MTZ028>42-056>058-201100-
SOUTHCENTRAL AND SOUTHEAST MONTANA

CITY           SKY/WX    TMP DP  RH WIND       PRES   REMARKS
BAKER          CLOUDY    45  36  70 SW14      29.67S
BILLINGS       CLEAR     45  34  65 W12       29.70S
LIVINGSTON     MOCLDY    43  32  65 W22       29.73R
MILES CITY     CLEAR     46  35  65 W12       29.66S
BIG TIMBER     PTCLDY    41  32  70 W23G29    29.71F
HARLOWTON        N/A     41  29  63 MISG      29.66F
LAUREL           N/A     41  34  75 SW9       29.71S
$$

REGIONAL REPORTS...DAKOTAS

CITY           SKY/WX    TMP DP  RH WIND       PRES   REMARKS
WILLISTON      CLEAR     41  37  86 SW6       29.57F
MINOT          CLEAR     48  43  82 SW10      29.54S
DICKINSON      CLEAR     41  38  89 SW8       29.63S
BEACH            N/A     43  39  87 SW10G16   29.67R
CROSBY           N/A     45  41  87 SW8       29.54S
TIOGA            N/A     43  41  93 W13       29.57F
WATFORD CITY     N/A     41  37  87 CALM      29.59S
BISMARCK       CLEAR     48  42  80 W10       29.66R
GRAND FORKS    CLOUDY    58  54  86 W12       29.49R
FARGO          CLOUDY    57  52  83 W12       29.55R
BUFFALO SD       N/A     40  38  93 SW10      29.65R
$$

REGIONAL REPORTS...WYOMING/IDAHO/WASHINGTON

CITY           SKY/WX    TMP DP  RH WIND       PRES   REMARKS
GILLETTE       CLEAR     40  33  76 SW15      29.76S
SHERIDAN       CLEAR     42  29  59 W8        29.73S
BUFFALO WY     CLEAR     37  29  72 VRB6      29.77S
CODY           CLEAR     39  29  67 SE10      29.80R
YELLOWSTONE LA   N/A     28  26  92 VRB6      29.87S WCI  22
IDAHO FALLS    CLEAR     43  30  60 S14       29.88F
SALMON         PTCLDY    39  36  89 S3        29.78F
BOISE          CLOUDY    50  39  66 E13       29.80F
SPOKANE        MOCLDY    43  41  93 S16       29.65F
$$

REGIONAL REPORTS...ALBERTA

CITY           SKY/WX    TMP DP  RH WIND       PRES   REMARKS
EDMONTON       CLOUDY    39  39 100 SW2       29.33
CALGARY        MOCLDY    36  25  64 S3        29.39F
LETHBRIDGE     CLEAR     41  28  60 SW12      29.47F
MEDICINE HAT   CLEAR     41  32  70 S14       29.45S
$$

REGIONAL REPORTS...SASKATCHEWAN

CITY           SKY/WX    TMP DP  RH WIND       PRES   REMARKS
SWIFT CURRENT  CLEAR     39  27  60 SW14G20   29.45F WCI  31
REGINA         CLOUDY    39  36  87 SW6       29.48S
SASKATOON      MOCLDY    36  34  93 SW8       29.42S WCI  29
$$




USA.gov is the U.S. government's official web portal to all federal, state and local government web resources and services.